HAL1448 PHNL-PHLI

Flight info

Callsign HAL1448
Flight time 0h 23m
Altitude 12000
Route KEOLA3 LIH
Aircraft B712/M-SDFGHRWY/C

Departure

Time 2026-04-23 22:46
Airport Daniel K. Inouye International Airport (PHNL)

Arrival

Time 2026-04-23 23:09
Airport Lihue Airport (PHLI)
Time Latitude Longitude Altitude Speed Heading
2026-04-23 22:26 21.32879 -157.92067 13 ft 0 kts 39°
2026-04-23 22:38 21.32881 -157.92049 14 ft 2 kts 153°
2026-04-23 22:38 21.32875 -157.92056 13 ft 3 kts 255°
2026-04-23 22:39 21.32871 -157.92069 16 ft 0 kts 229°
2026-04-23 22:40 21.32870 -157.92070 15 ft 2 kts 229°
2026-04-23 22:41 21.32843 -157.92103 15 ft 10 kts 228°
2026-04-23 22:41 21.32785 -157.92189 14 ft 18 kts 244°
2026-04-23 22:41 21.32773 -157.92351 12 ft 26 kts 269°
2026-04-23 22:41 21.32774 -157.92555 14 ft 29 kts 270°
2026-04-23 22:42 21.32756 -157.92778 14 ft 30 kts 248°
2026-04-23 22:42 21.32742 -157.93007 13 ft 33 kts 270°
2026-04-23 22:42 21.32742 -157.93260 14 ft 31 kts 270°
2026-04-23 22:42 21.32741 -157.93496 13 ft 34 kts 271°
2026-04-23 22:43 21.32738 -157.93748 15 ft 35 kts 270°
2026-04-23 22:43 21.32741 -157.94016 14 ft 36 kts 270°
2026-04-23 22:43 21.32742 -157.94260 15 ft 31 kts 268°
2026-04-23 22:43 21.32664 -157.94326 16 ft 13 kts 180°
2026-04-23 22:44 21.32630 -157.94327 16 ft 0 kts 181°
2026-04-23 22:44 21.32619 -157.94326 17 ft 7 kts 178°
2026-04-23 22:44 21.32534 -157.94296 18 ft 16 kts 118°
2026-04-23 22:45 21.32528 -157.94248 17 ft 0 kts 89°
2026-04-23 22:45 21.32528 -157.93958 18 ft 81 kts 90°
2026-04-23 22:45 21.32532 -157.93053 35 ft 156 kts 88°
2026-04-23 22:45 21.32522 -157.91750 484 ft 196 kts 88°
2026-04-23 22:46 21.32294 -157.90171 1399 ft 233 kts 105°
2026-04-23 22:46 21.31454 -157.88577 2832 ft 265 kts 124°
2026-04-23 22:46 21.30153 -157.87108 4516 ft 270 kts 137°
2026-04-23 22:46 21.28613 -157.86013 5399 ft 272 kts 154°
2026-04-23 22:47 21.26746 -157.85406 6527 ft 284 kts 167°
2026-04-23 22:47 21.24828 -157.85382 8103 ft 272 kts 192°
2026-04-23 22:47 21.23098 -157.86113 9510 ft 268 kts 211°
2026-04-23 22:47 21.21258 -157.87062 9039 ft 314 kts 208°
2026-04-23 22:48 21.19613 -157.88402 9354 ft 288 kts 230°
2026-04-23 22:48 21.18602 -157.90362 9837 ft 321 kts 254°
2026-04-23 22:48 21.18316 -157.92870 10002 ft 353 kts 274°
2026-04-23 22:48 21.18828 -157.95381 9733 ft 341 kts 293°
2026-04-23 22:49 21.20120 -157.97365 9903 ft 311 kts 318°
2026-04-23 22:49 21.21872 -157.98552 9886 ft 292 kts 338°
2026-04-23 22:49 21.23780 -157.99170 9607 ft 280 kts 337°
2026-04-23 22:49 21.25238 -158.00353 9622 ft 260 kts 304°
2026-04-23 22:50 21.26152 -158.01997 9778 ft 262 kts 298°
2026-04-23 22:50 21.27034 -158.03852 9985 ft 294 kts 296°
2026-04-23 22:50 21.27927 -158.05879 10336 ft 302 kts 294°
2026-04-23 22:50 21.28720 -158.07980 10680 ft 312 kts 289°
2026-04-23 22:51 21.29359 -158.10306 11041 ft 339 kts 284°
2026-04-23 22:51 21.29809 -158.12825 11400 ft 345 kts 280°
2026-04-23 22:51 21.30108 -158.15379 11673 ft 348 kts 277°
2026-04-23 22:51 21.30298 -158.17987 11803 ft 352 kts 275°
2026-04-23 22:52 21.30417 -158.20612 11869 ft 353 kts 273°
2026-04-23 22:52 21.30479 -158.23249 11886 ft 353 kts 272°
2026-04-23 22:52 21.30490 -158.25880 11899 ft 352 kts 271°
2026-04-23 22:52 21.30469 -158.28579 11910 ft 384 kts 270°
2026-04-23 22:53 21.30416 -158.31533 11913 ft 402 kts 270°
2026-04-23 22:53 21.30343 -158.34526 11903 ft 398 kts 269°
2026-04-23 22:53 21.30257 -158.37465 11898 ft 392 kts 269°
2026-04-23 22:53 21.30157 -158.40385 11897 ft 391 kts 269°
2026-04-23 22:54 21.30051 -158.43301 11892 ft 392 kts 269°
2026-04-23 22:54 21.30097 -158.46216 11861 ft 392 kts 282°
2026-04-23 22:54 21.30954 -158.48983 11859 ft 391 kts 294°
2026-04-23 22:54 21.32109 -158.51623 11872 ft 390 kts 297°
2026-04-23 22:55 21.33365 -158.54197 11878 ft 389 kts 300°
2026-04-23 22:55 21.34677 -158.56721 11882 ft 387 kts 301°
2026-04-23 22:55 21.36030 -158.59220 11884 ft 387 kts 301°
2026-04-23 22:55 21.37407 -158.61697 11882 ft 386 kts 302°
2026-04-23 22:56 21.38792 -158.64152 11884 ft 385 kts 302°
2026-04-23 22:56 21.40196 -158.66611 11885 ft 386 kts 302°
2026-04-23 22:56 21.41584 -158.69032 11876 ft 385 kts 303°
2026-04-23 22:56 21.42963 -158.71429 11726 ft 369 kts 303°
2026-04-23 22:57 21.44280 -158.73722 11561 ft 353 kts 303°
2026-04-23 22:57 21.45544 -158.75917 11387 ft 338 kts 303°
2026-04-23 22:57 21.46778 -158.78044 11221 ft 333 kts 303°
2026-04-23 22:57 21.47990 -158.80140 11056 ft 328 kts 303°
2026-04-23 22:58 21.49203 -158.82228 10894 ft 330 kts 303°
2026-04-23 22:58 21.50416 -158.84311 10732 ft 328 kts 303°
2026-04-23 22:58 21.51622 -158.86381 10566 ft 327 kts 303°
2026-04-23 22:58 21.52835 -158.88459 10324 ft 330 kts 303°
2026-04-23 22:59 21.54040 -158.90527 9981 ft 323 kts 303°
2026-04-23 22:59 21.55224 -158.92556 9604 ft 317 kts 303°
2026-04-23 22:59 21.56380 -158.94543 9218 ft 311 kts 303°
2026-04-23 22:59 21.57517 -158.96496 8842 ft 305 kts 303°
2026-04-23 23:00 21.58630 -158.98410 8472 ft 300 kts 303°
2026-04-23 23:00 21.59721 -159.00301 8106 ft 295 kts 303°
2026-04-23 23:00 21.60796 -159.02156 7747 ft 290 kts 302°
2026-04-23 23:00 21.61852 -159.03989 7390 ft 286 kts 303°
2026-04-23 23:01 21.62919 -159.05831 7041 ft 301 kts 303°
2026-04-23 23:01 21.64025 -159.07734 6688 ft 298 kts 303°
2026-04-23 23:01 21.64746 -159.08986 6450 ft 297 kts 303°
2026-04-23 23:01 21.66181 -159.11466 5945 ft 291 kts 303°
2026-04-23 23:02 21.67241 -159.13300 5577 ft 287 kts 303°
2026-04-23 23:02 21.68280 -159.15112 5215 ft 283 kts 303°
2026-04-23 23:02 21.69308 -159.16895 4854 ft 279 kts 304°
2026-04-23 23:02 21.69992 -159.18092 4606 ft 277 kts 304°
2026-04-23 23:03 21.70989 -159.19844 4273 ft 272 kts 304°
2026-04-23 23:03 21.71992 -159.21557 4125 ft 270 kts 310°
2026-04-23 23:03 21.73305 -159.22964 4051 ft 266 kts 325°
2026-04-23 23:03 21.74628 -159.24311 4007 ft 270 kts 305°
2026-04-23 23:04 21.75466 -159.26115 4003 ft 263 kts 296°
2026-04-23 23:04 21.76159 -159.27858 4001 ft 244 kts 295°
2026-04-23 23:04 21.76809 -159.29496 4003 ft 235 kts 300°
2026-04-23 23:04 21.77573 -159.31038 4010 ft 230 kts 303°
2026-04-23 23:05 21.78556 -159.32199 3882 ft 198 kts 333°
2026-04-23 23:05 21.79765 -159.32786 3438 ft 184 kts 344°
2026-04-23 23:05 21.80989 -159.33166 3108 ft 182 kts 350°
2026-04-23 23:05 21.82227 -159.33421 2830 ft 181 kts 354°
2026-04-23 23:06 21.83414 -159.33569 2574 ft 165 kts
2026-04-23 23:06 21.84552 -159.33618 2382 ft 163 kts
2026-04-23 23:06 21.85683 -159.33615 2154 ft 162 kts
2026-04-23 23:06 21.86802 -159.33612 1951 ft 161 kts
2026-04-23 23:07 21.87930 -159.33596 1727 ft 164 kts
2026-04-23 23:07 21.89041 -159.33593 1525 ft 153 kts
2026-04-23 23:07 21.90053 -159.33596 1362 ft 137 kts
2026-04-23 23:07 21.91028 -159.33593 1189 ft 143 kts
2026-04-23 23:08 21.92018 -159.33548 1025 ft 139 kts
2026-04-23 23:08 21.92943 -159.33614 763 ft 136 kts
2026-04-23 23:08 21.93931 -159.33611 655 ft 149 kts
2026-04-23 23:08 21.94915 -159.33611 411 ft 132 kts
2026-04-23 23:09 21.95858 -159.33590 246 ft 134 kts
2026-04-23 23:09 21.96794 -159.33590 98 ft 122 kts
2026-04-23 23:09 21.97471 -159.33590 118 ft 77 kts 360°
2026-04-23 23:09 21.97866 -159.33590 137 ft 43 kts 360°
2026-04-23 23:10 21.98091 -159.33591 143 ft 25 kts 358°
2026-04-23 23:10 21.98157 -159.33673 138 ft 12 kts 275°
2026-04-23 23:10 21.98170 -159.33699 125 ft 0 kts 318°
2026-04-23 23:11 21.98174 -159.33703 124 ft 5 kts 323°
2026-04-23 23:11 21.98279 -159.33709 102 ft 23 kts
2026-04-23 23:11 21.98403 -159.33803 93 ft 23 kts 316°
2026-04-23 23:12 21.98496 -159.33909 101 ft 15 kts 294°
2026-04-23 23:12 21.98455 -159.33984 103 ft 14 kts 225°
2026-04-23 23:12 21.98383 -159.34061 105 ft 10 kts 224°
2026-04-23 23:12 21.98365 -159.34080 105 ft 0 kts 224°